Location: Newark
(12.4436°N, 0.6167°W)
Time: 21:36:52
(UTC+00:00)

deb Explorer IX - Pass Details

Date: 10 December 2019
Orbit: 548 x 1101 km, 38.8° (Epoch: 28 January)

Event Time Altitude Azimuth Distance (km) Brightness Sun altitude
Rises 21:41:43 0° 324° (NW) 3,842 - -56.6°
Reaches altitude 10° 21:44:55 10° 336° (NNW) 2,925 - -57.3°
Maximum altitude 21:50:53 27° 31° (NNE) 1,967 - -58.6°
Drops below altitude 10° 21:56:48 10° 86° (E) 2,907 - -60.0°
Sets 21:59:56 0° 98° (E) 3,815 - -60.7°
